Date_Time,Julian_Date,Latitude,Longitude,Instrument_Depth,U,V,Speed,Direction
(yyyy-mm-dd hh:mn:ss UTC),(JD),(+ deg. North),(+ deg. East),(m),(cm/s),(cm/s),(cm/s),(deg True)
1984-07-11 17:30:00 UTC,2445893.229167,28.7317,-95.2428,0036,2.18,-8.73,9.0000,166.0000
1984-07-11 18:00:00 UTC,2445893.250000,28.7317,-95.2428,0036,-0.47,-8.99,9.0000,183.0000
1984-07-11 18:30:00 UTC,2445893.270833,28.7317,-95.2428,0036,-3.80,-8.16,9.0000,205.0000
1984-07-11 19:00:00 UTC,2445893.291667,28.7317,-95.2428,0036,-5.59,-8.29,10.0000,214.0000
1984-07-11 19:30:00 UTC,2445893.312500,28.7317,-95.2428,0036,-7.39,-9.46,12.0000,218.0000
1984-07-11 20:00:00 UTC,2445893.333333,28.7317,-95.2428,0036,-9.51,-8.87,13.0000,227.0000
1984-07-11 20:30:00 UTC,2445893.354167,28.7317,-95.2428,0036,-11.33,-8.23,14.0000,234.0000
1984-07-11 21:00:00 UTC,2445893.375000,28.7317,-95.2428,0036,-13.12,-7.27,15.0000,241.0000
1984-07-11 21:30:00 UTC,2445893.395833,28.7317,-95.2428,0036,-15.53,-6.91,17.0000,246.0000
1984-07-11 22:00:00 UTC,2445893.416667,28.7317,-95.2428,0036,-16.91,-6.16,18.0000,250.0000
1984-07-11 22:30:00 UTC,2445893.437500,28.7317,-95.2428,0036,-19.13,-5.85,20.0000,253.0000
1984-07-11 23:00:00 UTC,2445893.458333,28.7317,-95.2428,0036,-20.38,-5.08,21.0000,256.0000
1984-07-11 23:30:00 UTC,2445893.479167,28.7317,-95.2428,0036,-20.88,-2.20,21.0000,264.0000
1984-07-12 00:00:00 UTC,2445893.500000,28.7317,-95.2428,0036,-22.41,5.17,23.0000,283.0000
1984-07-12 00:30:00 UTC,2445893.520833,28.7317,-95.2428,0036,-23.61,13.09,27.0000,299.0000
1984-07-12 01:00:00 UTC,2445893.541667,28.7317,-95.2428,0036,-23.16,17.45,29.0000,307.0000
1984-07-12 01:30:00 UTC,2445893.562500,28.7317,-95.2428,0036,-20.14,19.45,28.0000,314.0000
1984-07-12 02:00:00 UTC,2445893.583333,28.7317,-95.2428,0036,-15.49,22.12,27.0000,325.0000
1984-07-12 02:30:00 UTC,2445893.604167,28.7317,-95.2428,0036,-11.41,24.47,27.0000,335.0000
1984-07-12 03:00:00 UTC,2445893.625000,28.7317,-95.2428,0036,-8.34,25.68,27.0000,342.0000
1984-07-12 03:30:00 UTC,2445893.645833,28.7317,-95.2428,0036,-5.85,25.33,26.0000,347.0000
1984-07-12 04:00:00 UTC,2445893.666667,28.7317,-95.2428,0036,-4.69,26.59,27.0000,350.0000
1984-07-12 04:30:00 UTC,2445893.687500,28.7317,-95.2428,0036,-4.04,28.72,29.0000,352.0000
1984-07-12 05:00:00 UTC,2445893.708333,28.7317,-95.2428,0036,-3.35,31.82,32.0000,354.0000
1984-07-12 05:30:00 UTC,2445893.729167,28.7317,-95.2428,0036,-1.78,33.95,34.0000,357.0000
1984-07-12 06:00:00 UTC,2445893.750000,28.7317,-95.2428,0036,-0.58,32.99,33.0000,359.0000
1984-07-12 06:30:00 UTC,2445893.770833,28.7317,-95.2428,0036,-0.58,32.99,33.0000,359.0000
1984-07-12 07:00:00 UTC,2445893.791667,28.7317,-95.2428,0036,-1.19,33.98,34.0000,358.0000
1984-07-12 07:30:00 UTC,2445893.812500,28.7317,-95.2428,0036,-2.58,36.91,37.0000,356.0000
1984-07-12 08:00:00 UTC,2445893.833333,28.7317,-95.2428,0036,-3.57,40.84,41.0000,355.0000
1984-07-12 08:30:00 UTC,2445893.854167,28.7317,-95.2428,0036,-2.15,40.94,41.0000,357.0000
1984-07-12 09:00:00 UTC,2445893.875000,28.7317,-95.2428,0036,1.36,38.98,39.0000,2.0000
1984-07-12 09:30:00 UTC,2445893.895833,28.7317,-95.2428,0036,4.51,36.72,37.0000,7.0000
1984-07-12 10:00:00 UTC,2445893.916667,28.7317,-95.2428,0036,6.49,33.38,34.0000,11.0000
1984-07-12 10:30:00 UTC,2445893.937500,28.7317,-95.2428,0036,8.48,27.73,29.0000,17.0000
1984-07-12 11:00:00 UTC,2445893.958333,28.7317,-95.2428,0036,9.77,23.01,25.0000,23.0000
1984-07-12 11:30:00 UTC,2445893.979167,28.7317,-95.2428,0036,11.15,20.12,23.0000,29.0000
1984-07-12 12:00:00 UTC,2445894.000000,28.7317,-95.2428,0036,12.64,16.77,21.0000,37.0000
1984-07-12 12:30:00 UTC,2445894.020833,28.7317,-95.2428,0036,14.12,12.71,19.0000,48.0000
1984-07-12 13:00:00 UTC,2445894.041667,28.7317,-95.2428,0036,14.57,8.76,17.0000,59.0000
1984-07-12 13:30:00 UTC,2445894.062500,28.7317,-95.2428,0036,14.83,5.99,16.0000,68.0000
1984-07-12 14:00:00 UTC,2445894.083333,28.7317,-95.2428,0036,14.67,3.12,15.0000,78.0000
1984-07-12 14:30:00 UTC,2445894.104167,28.7317,-95.2428,0036,14.99,0.52,15.0000,88.0000
1984-07-12 15:00:00 UTC,2445894.125000,28.7317,-95.2428,0036,13.92,-1.46,14.0000,96.0000
1984-07-12 15:30:00 UTC,2445894.145833,28.7317,-95.2428,0036,13.64,-3.15,14.0000,103.0000
1984-07-12 16:00:00 UTC,2445894.166667,28.7317,-95.2428,0036,12.36,-4.02,13.0000,108.0000
1984-07-12 16:30:00 UTC,2445894.187500,28.7317,-95.2428,0036,10.05,-4.47,11.0000,114.0000
1984-07-12 17:00:00 UTC,2445894.208333,28.7317,-95.2428,0036,7.36,-3.13,8.0000,113.0000
1984-07-12 17:30:00 UTC,2445894.229167,28.7317,-95.2428,0036,6.49,-2.62,7.0000,112.0000
1984-07-12 18:00:00 UTC,2445894.250000,28.7317,-95.2428,0036,5.25,-2.91,6.0000,119.0000
1984-07-12 18:30:00 UTC,2445894.270833,28.7317,-95.2428,0036,4.19,-2.72,5.0000,123.0000
1984-07-12 19:00:00 UTC,2445894.291667,28.7317,-95.2428,0036,3.24,-2.35,4.0000,126.0000
1984-07-12 19:30:00 UTC,2445894.312500,28.7317,-95.2428,0036,1.76,-2.43,3.0000,144.0000
1984-07-12 20:00:00 UTC,2445894.333333,28.7317,-95.2428,0036,0.42,-2.97,3.0000,172.0000
1984-07-12 20:30:00 UTC,2445894.354167,28.7317,-95.2428,0036,-0.98,-2.84,3.0000,199.0000
1984-07-12 21:00:00 UTC,2445894.375000,28.7317,-95.2428,0036,-2.30,-1.93,3.0000,230.0000
1984-07-12 21:30:00 UTC,2445894.395833,28.7317,-95.2428,0036,-3.78,-1.30,4.0000,251.0000
1984-07-12 22:00:00 UTC,2445894.416667,28.7317,-95.2428,0036,-4.92,-0.87,5.0000,260.0000
1984-07-12 22:30:00 UTC,2445894.437500,28.7317,-95.2428,0036,-5.99,-0.42,6.0000,266.0000
1984-07-12 23:00:00 UTC,2445894.458333,28.7317,-95.2428,0036,-7.96,0.84,8.0000,276.0000
1984-07-12 23:30:00 UTC,2445894.479167,28.7317,-95.2428,0036,-8.65,2.48,9.0000,286.0000
1984-07-13 00:00:00 UTC,2445894.500000,28.7317,-95.2428,0036,-8.22,3.66,9.0000,294.0000
1984-07-13 00:30:00 UTC,2445894.520833,28.7317,-95.2428,0036,-7.63,4.77,9.0000,302.0000
1984-07-13 01:00:00 UTC,2445894.541667,28.7317,-95.2428,0036,-5.85,5.46,8.0000,313.0000
1984-07-13 01:30:00 UTC,2445894.562500,28.7317,-95.2428,0036,-4.59,6.55,8.0000,325.0000
1984-07-13 02:00:00 UTC,2445894.583333,28.7317,-95.2428,0036,-2.34,7.65,8.0000,343.0000
1984-07-13 02:30:00 UTC,2445894.604167,28.7317,-95.2428,0036,1.10,6.91,7.0000,9.0000
1984-07-13 03:00:00 UTC,2445894.625000,28.7317,-95.2428,0036,3.25,7.31,8.0000,24.0000
1984-07-13 03:30:00 UTC,2445894.645833,28.7317,-95.2428,0036,4.09,8.02,9.0000,27.0000
1984-07-13 04:00:00 UTC,2445894.666667,28.7317,-95.2428,0036,4.85,8.75,10.0000,29.0000
1984-07-13 04:30:00 UTC,2445894.687500,28.7317,-95.2428,0036,4.64,7.71,9.0000,31.0000
1984-07-13 05:00:00 UTC,2445894.708333,28.7317,-95.2428,0036,4.36,6.71,8.0000,33.0000
1984-07-13 05:30:00 UTC,2445894.729167,28.7317,-95.2428,0036,4.36,6.71,8.0000,33.0000
1984-07-13 06:00:00 UTC,2445894.750000,28.7317,-95.2428,0036,4.50,7.79,9.0000,30.0000
1984-07-13 06:30:00 UTC,2445894.770833,28.7317,-95.2428,0036,4.50,7.79,9.0000,30.0000
1984-07-13 07:00:00 UTC,2445894.791667,28.7317,-95.2428,0036,5.45,8.39,10.0000,33.0000
1984-07-13 07:30:00 UTC,2445894.812500,28.7317,-95.2428,0036,6.62,8.78,11.0000,37.0000
1984-07-13 08:00:00 UTC,2445894.833333,28.7317,-95.2428,0036,8.36,9.96,13.0000,40.0000
1984-07-13 08:30:00 UTC,2445894.854167,28.7317,-95.2428,0036,10.23,10.97,15.0000,43.0000
1984-07-13 09:00:00 UTC,2445894.875000,28.7317,-95.2428,0036,11.49,9.64,15.0000,50.0000
1984-07-13 09:30:00 UTC,2445894.895833,28.7317,-95.2428,0036,12.99,7.50,15.0000,60.0000
1984-07-13 10:00:00 UTC,2445894.916667,28.7317,-95.2428,0036,14.00,5.38,15.0000,69.0000
1984-07-13 10:30:00 UTC,2445894.937500,28.7317,-95.2428,0036,14.62,3.37,15.0000,77.0000
1984-07-13 11:00:00 UTC,2445894.958333,28.7317,-95.2428,0036,13.95,1.22,14.0000,85.0000
1984-07-13 11:30:00 UTC,2445894.979167,28.7317,-95.2428,0036,10.92,-1.34,11.0000,97.0000
1984-07-13 12:00:00 UTC,2445895.000000,28.7317,-95.2428,0036,6.24,-3.18,7.0000,117.0000
1984-07-13 12:30:00 UTC,2445895.020833,28.7317,-95.2428,0036,6.93,-4.00,8.0000,120.0000
1984-07-13 13:00:00 UTC,2445895.041667,28.7317,-95.2428,0036,8.40,-3.23,9.0000,111.0000
1984-07-13 13:30:00 UTC,2445895.062500,28.7317,-95.2428,0036,9.66,-2.59,10.0000,105.0000
1984-07-13 14:00:00 UTC,2445895.083333,28.7317,-95.2428,0036,9.93,-1.22,10.0000,97.0000
1984-07-13 14:30:00 UTC,2445895.104167,28.7317,-95.2428,0036,10.00,0.00,10.0000,90.0000
1984-07-13 15:00:00 UTC,2445895.125000,28.7317,-95.2428,0036,8.97,0.78,9.0000,85.0000
1984-07-13 15:30:00 UTC,2445895.145833,28.7317,-95.2428,0036,8.83,1.72,9.0000,79.0000
1984-07-13 16:00:00 UTC,2445895.166667,28.7317,-95.2428,0036,7.65,2.34,8.0000,73.0000
1984-07-13 16:30:00 UTC,2445895.187500,28.7317,-95.2428,0036,6.29,3.07,7.0000,64.0000
1984-07-13 17:00:00 UTC,2445895.208333,28.7317,-95.2428,0036,5.36,4.50,7.0000,50.0000
1984-07-13 17:30:00 UTC,2445895.229167,28.7317,-95.2428,0036,4.68,5.20,7.0000,42.0000
1984-07-13 18:00:00 UTC,2445895.250000,28.7317,-95.2428,0036,4.93,6.30,8.0000,38.0000
1984-07-13 18:30:00 UTC,2445895.270833,28.7317,-95.2428,0036,5.29,7.28,9.0000,36.0000
1984-07-13 19:00:00 UTC,2445895.291667,28.7317,-95.2428,0036,4.90,7.55,9.0000,33.0000
1984-07-13 19:30:00 UTC,2445895.312500,28.7317,-95.2428,0036,5.29,7.28,9.0000,36.0000
1984-07-13 20:00:00 UTC,2445895.333333,28.7317,-95.2428,0036,6.69,6.02,9.0000,48.0000
1984-07-13 20:30:00 UTC,2445895.354167,28.7317,-95.2428,0036,8.39,5.45,10.0000,57.0000
1984-07-13 21:00:00 UTC,2445895.375000,28.7317,-95.2428,0036,9.80,4.99,11.0000,63.0000
1984-07-13 21:30:00 UTC,2445895.395833,28.7317,-95.2428,0036,9.06,4.23,10.0000,65.0000
1984-07-13 22:00:00 UTC,2445895.416667,28.7317,-95.2428,0036,9.14,4.07,10.0000,66.0000
1984-07-13 22:30:00 UTC,2445895.437500,28.7317,-95.2428,0036,8.73,2.18,9.0000,76.0000
1984-07-13 23:00:00 UTC,2445895.458333,28.7317,-95.2428,0036,10.96,-0.96,11.0000,95.0000
1984-07-13 23:30:00 UTC,2445895.479167,28.7317,-95.2428,0036,10.88,-5.07,12.0000,115.0000
1984-07-14 00:00:00 UTC,2445895.500000,28.7317,-95.2428,0036,8.92,-8.03,12.0000,132.0000
1984-07-14 00:30:00 UTC,2445895.520833,28.7317,-95.2428,0036,5.99,-9.23,11.0000,147.0000
1984-07-14 01:00:00 UTC,2445895.541667,28.7317,-95.2428,0036,4.47,-10.05,11.0000,156.0000
1984-07-14 01:30:00 UTC,2445895.562500,28.7317,-95.2428,0036,4.47,-10.05,11.0000,156.0000
1984-07-14 02:00:00 UTC,2445895.583333,28.7317,-95.2428,0036,4.69,-11.05,12.0000,157.0000
1984-07-14 02:30:00 UTC,2445895.604167,28.7317,-95.2428,0036,3.40,-10.46,11.0000,162.0000
1984-07-14 03:00:00 UTC,2445895.625000,28.7317,-95.2428,0036,1.74,-9.85,10.0000,170.0000
1984-07-14 03:30:00 UTC,2445895.645833,28.7317,-95.2428,0036,-0.70,-7.97,8.0000,185.0000
1984-07-14 04:00:00 UTC,2445895.666667,28.7317,-95.2428,0036,-2.54,-5.44,6.0000,205.0000
1984-07-14 04:30:00 UTC,2445895.687500,28.7317,-95.2428,0036,-3.01,-3.99,5.0000,217.0000
1984-07-14 05:00:00 UTC,2445895.708333,28.7317,-95.2428,0036,-2.19,-2.05,3.0000,227.0000
1984-07-14 05:30:00 UTC,2445895.729167,28.7317,-95.2428,0036,-0.92,-0.39,1.0000,247.0000
1984-07-14 06:00:00 UTC,2445895.750000,28.7317,-95.2428,0036,0.85,0.53,1.0000,58.0000
1984-07-14 06:30:00 UTC,2445895.770833,28.7317,-95.2428,0036,6.00,0.00,6.0000,90.0000
1984-07-14 07:00:00 UTC,2445895.791667,28.7317,-95.2428,0036,13.97,-0.98,14.0000,94.0000
1984-07-14 07:30:00 UTC,2445895.812500,28.7317,-95.2428,0036,19.89,-2.09,20.0000,96.0000
1984-07-14 08:00:00 UTC,2445895.833333,28.7317,-95.2428,0036,21.60,-4.20,22.0000,101.0000
1984-07-14 08:30:00 UTC,2445895.854167,28.7317,-95.2428,0036,23.07,-6.62,24.0000,106.0000
1984-07-14 09:00:00 UTC,2445895.875000,28.7317,-95.2428,0036,23.78,-7.73,25.0000,108.0000
1984-07-14 09:30:00 UTC,2445895.895833,28.7317,-95.2428,0036,25.21,-9.68,27.0000,111.0000
1984-07-14 10:00:00 UTC,2445895.916667,28.7317,-95.2428,0036,26.49,-11.80,29.0000,114.0000
1984-07-14 10:30:00 UTC,2445895.937500,28.7317,-95.2428,0036,27.41,-12.20,30.0000,114.0000
1984-07-14 11:00:00 UTC,2445895.958333,28.7317,-95.2428,0036,30.26,-10.42,32.0000,109.0000
1984-07-14 11:30:00 UTC,2445895.979167,28.7317,-95.2428,0036,33.47,-10.23,35.0000,107.0000
1984-07-14 12:00:00 UTC,2445896.000000,28.7317,-95.2428,0036,34.24,-11.12,36.0000,108.0000
1984-07-14 12:30:00 UTC,2445896.020833,28.7317,-95.2428,0036,33.61,-12.90,36.0000,111.0000
1984-07-14 13:00:00 UTC,2445896.041667,28.7317,-95.2428,0036,34.54,-13.26,37.0000,111.0000
1984-07-14 13:30:00 UTC,2445896.062500,28.7317,-95.2428,0036,34.77,-12.65,37.0000,110.0000
1984-07-14 14:00:00 UTC,2445896.083333,28.7317,-95.2428,0036,33.83,-12.31,36.0000,110.0000
1984-07-14 14:30:00 UTC,2445896.104167,28.7317,-95.2428,0036,31.74,-12.18,34.0000,111.0000
1984-07-14 15:00:00 UTC,2445896.125000,28.7317,-95.2428,0036,32.15,-11.07,34.0000,109.0000
1984-07-14 15:30:00 UTC,2445896.145833,28.7317,-95.2428,0036,33.81,-9.06,35.0000,105.0000
1984-07-14 16:00:00 UTC,2445896.166667,28.7317,-95.2428,0036,35.08,-8.10,36.0000,103.0000
1984-07-14 16:30:00 UTC,2445896.187500,28.7317,-95.2428,0036,35.08,-8.10,36.0000,103.0000
1984-07-14 17:00:00 UTC,2445896.208333,28.7317,-95.2428,0036,33.96,-8.47,35.0000,104.0000
1984-07-14 17:30:00 UTC,2445896.229167,28.7317,-95.2428,0036,33.64,-9.65,35.0000,106.0000
1984-07-14 18:00:00 UTC,2445896.250000,28.7317,-95.2428,0036,33.09,-11.39,35.0000,109.0000
1984-07-14 18:30:00 UTC,2445896.270833,28.7317,-95.2428,0036,32.89,-11.97,35.0000,110.0000
1984-07-14 19:00:00 UTC,2445896.291667,28.7317,-95.2428,0036,34.04,-11.72,36.0000,109.0000
1984-07-14 19:30:00 UTC,2445896.312500,28.7317,-95.2428,0036,33.61,-12.90,36.0000,111.0000
1984-07-14 20:00:00 UTC,2445896.333333,28.7317,-95.2428,0036,31.97,-14.24,35.0000,114.0000
1984-07-14 20:30:00 UTC,2445896.354167,28.7317,-95.2428,0036,27.99,-15.51,32.0000,119.0000
1984-07-14 21:00:00 UTC,2445896.375000,28.7317,-95.2428,0036,24.87,-16.78,30.0000,124.0000
1984-07-14 21:30:00 UTC,2445896.395833,28.7317,-95.2428,0036,22.36,-16.85,28.0000,127.0000
1984-07-14 22:00:00 UTC,2445896.416667,28.7317,-95.2428,0036,20.21,-16.36,26.0000,129.0000
1984-07-14 22:30:00 UTC,2445896.437500,28.7317,-95.2428,0036,17.62,-14.78,23.0000,130.0000
1984-07-14 23:00:00 UTC,2445896.458333,28.7317,-95.2428,0036,14.97,-11.70,19.0000,128.0000
1984-07-14 23:30:00 UTC,2445896.479167,28.7317,-95.2428,0036,12.29,-8.60,15.0000,125.0000
1984-07-15 00:00:00 UTC,2445896.500000,28.7317,-95.2428,0036,11.02,-6.89,13.0000,122.0000
1984-07-15 00:30:00 UTC,2445896.520833,28.7317,-95.2428,0036,10.29,-6.18,12.0000,121.0000
1984-07-15 01:00:00 UTC,2445896.541667,28.7317,-95.2428,0036,10.06,-6.54,12.0000,123.0000
1984-07-15 01:30:00 UTC,2445896.562500,28.7317,-95.2428,0036,9.23,-5.99,11.0000,123.0000
1984-07-15 02:00:00 UTC,2445896.583333,28.7317,-95.2428,0036,8.91,-4.54,10.0000,117.0000
1984-07-15 02:30:00 UTC,2445896.604167,28.7317,-95.2428,0036,8.51,-2.93,9.0000,109.0000
1984-07-15 03:00:00 UTC,2445896.625000,28.7317,-95.2428,0036,9.93,-1.22,10.0000,97.0000
1984-07-15 03:30:00 UTC,2445896.645833,28.7317,-95.2428,0036,10.97,0.77,11.0000,86.0000
1984-07-15 04:00:00 UTC,2445896.666667,28.7317,-95.2428,0036,12.80,2.26,13.0000,80.0000
1984-07-15 04:30:00 UTC,2445896.687500,28.7317,-95.2428,0036,13.64,3.15,14.0000,77.0000
1984-07-15 05:00:00 UTC,2445896.708333,28.7317,-95.2428,0036,12.80,2.26,13.0000,80.0000
1984-07-15 05:30:00 UTC,2445896.729167,28.7317,-95.2428,0036,12.95,1.13,13.0000,85.0000
1984-07-15 06:00:00 UTC,2445896.750000,28.7317,-95.2428,0036,13.92,1.46,14.0000,84.0000
1984-07-15 06:30:00 UTC,2445896.770833,28.7317,-95.2428,0036,14.62,3.37,15.0000,77.0000
1984-07-15 07:00:00 UTC,2445896.791667,28.7317,-95.2428,0036,16.91,6.16,18.0000,70.0000
1984-07-15 07:30:00 UTC,2445896.812500,28.7317,-95.2428,0036,18.41,7.81,20.0000,67.0000
1984-07-15 08:00:00 UTC,2445896.833333,28.7317,-95.2428,0036,19.47,7.87,21.0000,68.0000
1984-07-15 08:30:00 UTC,2445896.854167,28.7317,-95.2428,0036,21.61,7.87,23.0000,70.0000
1984-07-15 09:00:00 UTC,2445896.875000,28.7317,-95.2428,0036,23.78,7.73,25.0000,72.0000
1984-07-15 09:30:00 UTC,2445896.895833,28.7317,-95.2428,0036,24.73,8.03,26.0000,72.0000
1984-07-15 10:00:00 UTC,2445896.916667,28.7317,-95.2428,0036,26.08,6.99,27.0000,75.0000
1984-07-15 10:30:00 UTC,2445896.937500,28.7317,-95.2428,0036,27.49,5.34,28.0000,79.0000
1984-07-15 11:00:00 UTC,2445896.958333,28.7317,-95.2428,0036,28.72,4.04,29.0000,82.0000
1984-07-15 11:30:00 UTC,2445896.979167,28.7317,-95.2428,0036,27.93,1.95,28.0000,86.0000
1984-07-15 12:00:00 UTC,2445897.000000,28.7317,-95.2428,0036,28.00,-0.49,28.0000,91.0000
1984-07-15 12:30:00 UTC,2445897.020833,28.7317,-95.2428,0036,28.89,-2.53,29.0000,95.0000
1984-07-15 13:00:00 UTC,2445897.041667,28.7317,-95.2428,0036,28.56,-5.04,29.0000,100.0000
1984-07-15 13:30:00 UTC,2445897.062500,28.7317,-95.2428,0036,27.05,-7.25,28.0000,105.0000
1984-07-15 14:00:00 UTC,2445897.083333,28.7317,-95.2428,0036,26.47,-9.12,28.0000,109.0000
1984-07-15 14:30:00 UTC,2445897.104167,28.7317,-95.2428,0036,26.31,-9.58,28.0000,110.0000
1984-07-15 15:00:00 UTC,2445897.125000,28.7317,-95.2428,0036,25.96,-10.49,28.0000,112.0000
1984-07-15 15:30:00 UTC,2445897.145833,28.7317,-95.2428,0036,25.96,-10.49,28.0000,112.0000
1984-07-15 16:00:00 UTC,2445897.166667,28.7317,-95.2428,0036,24.85,-10.55,27.0000,113.0000
1984-07-15 16:30:00 UTC,2445897.187500,28.7317,-95.2428,0036,23.56,-10.99,26.0000,115.0000
1984-07-15 17:00:00 UTC,2445897.208333,28.7317,-95.2428,0036,22.47,-10.96,25.0000,116.0000
1984-07-15 17:30:00 UTC,2445897.229167,28.7317,-95.2428,0036,21.38,-10.90,24.0000,117.0000
1984-07-15 18:00:00 UTC,2445897.250000,28.7317,-95.2428,0036,19.24,-10.67,22.0000,119.0000
1984-07-15 18:30:00 UTC,2445897.270833,28.7317,-95.2428,0036,18.19,-10.50,21.0000,120.0000
1984-07-15 19:00:00 UTC,2445897.291667,28.7317,-95.2428,0036,17.14,-10.30,20.0000,121.0000
1984-07-15 19:30:00 UTC,2445897.312500,28.7317,-95.2428,0036,14.92,-10.07,18.0000,124.0000
1984-07-15 20:00:00 UTC,2445897.333333,28.7317,-95.2428,0036,13.11,-9.18,16.0000,125.0000
1984-07-15 20:30:00 UTC,2445897.354167,28.7317,-95.2428,0036,11.98,-9.03,15.0000,127.0000
1984-07-15 21:00:00 UTC,2445897.375000,28.7317,-95.2428,0036,10.40,-9.37,14.0000,132.0000
1984-07-15 21:30:00 UTC,2445897.395833,28.7317,-95.2428,0036,8.53,-9.81,13.0000,139.0000
1984-07-15 22:00:00 UTC,2445897.416667,28.7317,-95.2428,0036,6.54,-10.06,12.0000,147.0000
1984-07-15 22:30:00 UTC,2445897.437500,28.7317,-95.2428,0036,4.07,-9.14,10.0000,156.0000
1984-07-15 23:00:00 UTC,2445897.458333,28.7317,-95.2428,0036,2.34,-7.65,8.0000,163.0000
1984-07-15 23:30:00 UTC,2445897.479167,28.7317,-95.2428,0036,1.10,-6.91,7.0000,171.0000
1984-07-16 00:00:00 UTC,2445897.500000,28.7317,-95.2428,0036,-0.31,-5.99,6.0000,183.0000
1984-07-16 00:30:00 UTC,2445897.520833,28.7317,-95.2428,0036,-1.45,-5.82,6.0000,194.0000
1984-07-16 01:00:00 UTC,2445897.541667,28.7317,-95.2428,0036,-1.46,-4.78,5.0000,197.0000
1984-07-16 01:30:00 UTC,2445897.562500,28.7317,-95.2428,0036,-0.67,-2.92,3.0000,193.0000
1984-07-16 02:00:00 UTC,2445897.583333,28.7317,-95.2428,0036,1.15,-1.64,2.0000,145.0000
1984-07-16 02:30:00 UTC,2445897.604167,28.7317,-95.2428,0036,4.70,1.71,5.0000,70.0000
1984-07-16 03:00:00 UTC,2445897.625000,28.7317,-95.2428,0036,7.46,5.03,9.0000,56.0000
1984-07-16 03:30:00 UTC,2445897.645833,28.7317,-95.2428,0036,8.09,5.88,10.0000,54.0000
1984-07-16 04:00:00 UTC,2445897.666667,28.7317,-95.2428,0036,8.55,6.92,11.0000,51.0000
1984-07-16 04:30:00 UTC,2445897.687500,28.7317,-95.2428,0036,9.33,7.55,12.0000,51.0000
1984-07-16 05:00:00 UTC,2445897.708333,28.7317,-95.2428,0036,10.24,8.00,13.0000,52.0000
1984-07-16 05:30:00 UTC,2445897.729167,28.7317,-95.2428,0036,11.32,9.84,15.0000,49.0000
1984-07-16 06:00:00 UTC,2445897.750000,28.7317,-95.2428,0036,12.23,11.81,17.0000,46.0000
1984-07-16 06:30:00 UTC,2445897.770833,28.7317,-95.2428,0036,13.67,13.20,19.0000,46.0000
1984-07-16 07:00:00 UTC,2445897.791667,28.7317,-95.2428,0036,16.35,14.72,22.0000,48.0000
1984-07-16 07:30:00 UTC,2445897.812500,28.7317,-95.2428,0036,17.36,15.09,23.0000,49.0000
1984-07-16 08:00:00 UTC,2445897.833333,28.7317,-95.2428,0036,18.39,15.43,24.0000,50.0000
1984-07-16 08:30:00 UTC,2445897.854167,28.7317,-95.2428,0036,19.70,15.39,25.0000,52.0000
1984-07-16 09:00:00 UTC,2445897.875000,28.7317,-95.2428,0036,20.73,13.98,25.0000,56.0000
1984-07-16 09:30:00 UTC,2445897.895833,28.7317,-95.2428,0036,20.57,12.36,24.0000,59.0000
1984-07-16 10:00:00 UTC,2445897.916667,28.7317,-95.2428,0036,21.19,11.27,24.0000,62.0000
1984-07-16 10:30:00 UTC,2445897.937500,28.7317,-95.2428,0036,21.93,9.76,24.0000,66.0000
1984-07-16 11:00:00 UTC,2445897.958333,28.7317,-95.2428,0036,21.61,7.87,23.0000,70.0000
1984-07-16 11:30:00 UTC,2445897.979167,28.7317,-95.2428,0036,21.25,5.69,22.0000,75.0000
1984-07-16 12:00:00 UTC,2445898.000000,28.7317,-95.2428,0036,21.52,4.57,22.0000,78.0000
1984-07-16 12:30:00 UTC,2445898.020833,28.7317,-95.2428,0036,21.79,3.06,22.0000,82.0000
1984-07-16 13:00:00 UTC,2445898.041667,28.7317,-95.2428,0036,21.97,1.15,22.0000,87.0000
1984-07-16 13:30:00 UTC,2445898.062500,28.7317,-95.2428,0036,22.97,-1.20,23.0000,93.0000
1984-07-16 14:00:00 UTC,2445898.083333,28.7317,-95.2428,0036,24.69,-3.91,25.0000,99.0000
1984-07-16 14:30:00 UTC,2445898.104167,28.7317,-95.2428,0036,25.52,-4.96,26.0000,101.0000
1984-07-16 15:00:00 UTC,2445898.125000,28.7317,-95.2428,0036,25.43,-5.41,26.0000,102.0000
1984-07-16 15:30:00 UTC,2445898.145833,28.7317,-95.2428,0036,24.36,-5.62,25.0000,103.0000
1984-07-16 16:00:00 UTC,2445898.166667,28.7317,-95.2428,0036,23.07,-6.62,24.0000,106.0000
1984-07-16 16:30:00 UTC,2445898.187500,28.7317,-95.2428,0036,20.67,-7.52,22.0000,110.0000
1984-07-16 17:00:00 UTC,2445898.208333,28.7317,-95.2428,0036,19.33,-8.21,21.0000,113.0000
1984-07-16 17:30:00 UTC,2445898.229167,28.7317,-95.2428,0036,17.82,-9.08,20.0000,117.0000
1984-07-16 18:00:00 UTC,2445898.250000,28.7317,-95.2428,0036,17.49,-9.70,20.0000,119.0000
1984-07-16 18:30:00 UTC,2445898.270833,28.7317,-95.2428,0036,17.14,-10.30,20.0000,121.0000
1984-07-16 19:00:00 UTC,2445898.291667,28.7317,-95.2428,0036,17.49,-9.70,20.0000,119.0000
1984-07-16 19:30:00 UTC,2445898.312500,28.7317,-95.2428,0036,19.77,-9.64,22.0000,116.0000
1984-07-16 20:00:00 UTC,2445898.333333,28.7317,-95.2428,0036,23.75,-10.58,26.0000,114.0000
1984-07-16 20:30:00 UTC,2445898.354167,28.7317,-95.2428,0036,26.49,-11.80,29.0000,114.0000
1984-07-16 21:00:00 UTC,2445898.375000,28.7317,-95.2428,0036,29.46,-12.50,32.0000,113.0000
1984-07-16 21:30:00 UTC,2445898.395833,28.7317,-95.2428,0036,31.74,-12.18,34.0000,111.0000
1984-07-16 22:00:00 UTC,2445898.416667,28.7317,-95.2428,0036,34.04,-11.72,36.0000,109.0000
1984-07-16 22:30:00 UTC,2445898.437500,28.7317,-95.2428,0036,35.71,-13.00,38.0000,110.0000
1984-07-16 23:00:00 UTC,2445898.458333,28.7317,-95.2428,0036,35.23,-14.24,38.0000,112.0000
1984-07-16 23:30:00 UTC,2445898.479167,28.7317,-95.2428,0036,35.90,-15.24,39.0000,113.0000
1984-07-17 00:00:00 UTC,2445898.500000,28.7317,-95.2428,0036,35.90,-15.24,39.0000,113.0000
1984-07-17 00:30:00 UTC,2445898.520833,28.7317,-95.2428,0036,35.63,-15.86,39.0000,114.0000
1984-07-17 01:00:00 UTC,2445898.541667,28.7317,-95.2428,0036,33.55,-17.84,38.0000,118.0000
1984-07-17 01:30:00 UTC,2445898.562500,28.7317,-95.2428,0036,32.91,-19.00,38.0000,120.0000
1984-07-17 02:00:00 UTC,2445898.583333,28.7317,-95.2428,0036,32.67,-17.37,37.0000,118.0000
1984-07-17 02:30:00 UTC,2445898.604167,28.7317,-95.2428,0036,33.80,-15.05,37.0000,114.0000
1984-07-17 03:00:00 UTC,2445898.625000,28.7317,-95.2428,0036,34.98,-12.05,37.0000,109.0000
1984-07-17 03:30:00 UTC,2445898.645833,28.7317,-95.2428,0036,35.74,-9.58,37.0000,105.0000
1984-07-17 04:00:00 UTC,2445898.666667,28.7317,-95.2428,0036,36.32,-7.06,37.0000,101.0000
1984-07-17 04:30:00 UTC,2445898.687500,28.7317,-95.2428,0036,36.72,-4.51,37.0000,97.0000
1984-07-17 05:00:00 UTC,2445898.708333,28.7317,-95.2428,0036,37.86,-3.31,38.0000,95.0000
1984-07-17 05:30:00 UTC,2445898.729167,28.7317,-95.2428,0036,39.95,-2.09,40.0000,93.0000
1984-07-17 06:00:00 UTC,2445898.750000,28.7317,-95.2428,0036,40.99,-0.72,41.0000,91.0000
1984-07-17 06:30:00 UTC,2445898.770833,28.7317,-95.2428,0036,41.99,0.73,42.0000,89.0000